FW0324 Weather Reports


Display with metric or nautical units.
time (UTC)temp
F
wind
direction
speed
MPH
gust
MPH
rain 1hr
in
rain 24hr
in
rain mn
in
humidity
%
barometer
mb
20180221224323 79 130 4.0 13.0 0.00 0.00 0.00 80 1021.8
20180221222822 80 80 5.0 14.0 0.00 0.00 0.00 78 1021.8
20180221221325 80 140 9.0 15.0 0.00 0.00 0.00 78 1021.7
20180221215823 80 166 7.0 13.0 0.00 0.00 0.00 77 1021.5
20180221214321 80 115 5.0 17.0 0.00 0.00 0.00 77 1021.5
20180221212825 80 118 8.0 18.0 0.00 0.00 0.00 76 1021.5
20180221211321 81 161 5.0 15.0 0.00 0.00 0.00 75 1021.5
20180221205920 81 168 4.0 14.0 0.00 0.00 0.00 73 1021.5
20180221204318 81 145 8.0 19.0 0.00 0.00 0.00 74 1021.4
20180221202818 81 97 7.0 19.0 0.00 0.00 0.00 74 1021.5
20180221201317 82 218 7.0 16.0 0.00 0.00 0.00 72 1021.7
20180221195816 82 232 8.0 17.0 0.00 0.00 0.00 71 1021.6
20180221194317 83 176 5.0 23.0 0.00 0.00 0.00 71 1021.7
20180221192912 83 131 5.0 12.0 0.00 0.00 0.00 72 1021.8
20180221191314 83 130 8.0 20.0 0.00 0.00 0.00 69 1022.1
20180221185815 83 84 5.0 16.0 0.00 0.00 0.00 70 1022.5
20180221184311 84 71 6.0 17.0 0.00 0.00 0.00 69 1022.5
20180221182807 83 126 8.0 17.0 0.00 0.00 0.00 72 1022.8
20180221181306 82 212 7.0 15.0 0.00 0.00 0.00 74 1023.0
20180221175807 81 173 9.0 18.0 0.00 0.00 0.00 75 1023.2
20180221174301 81 141 10.0 19.0 0.00 0.00 0.00 75 1023.4
20180221172805 81 109 6.0 20.0 0.00 0.00 0.00 75 1023.6
20180221171302 81 232 4.0 14.0 0.00 0.00 0.00 75 1023.6
20180221165757 81 224 6.0 21.0 0.00 0.00 0.00 75 1023.8
20180221164256 81 130 5.0 16.0 0.00 0.00 0.00 74 1024.0
20180221162756 80 121 9.0 17.0 0.00 0.00 0.00 75 1024.1
20180221161252 80 230 5.0 13.0 0.00 0.00 0.00 78 1024.2
20180221155748 79 197 6.0 16.0 0.00 0.00 0.00 81 1024.0
20180221154248 79 175 6.0 11.0 0.00 0.00 0.00 83 1024.1
20180221152747 78 198 5.0 12.0 0.00 0.00 0.00 86 1024.1
20180221151243 78 167 6.0 13.0 0.00 0.00 0.00 87 1024.0
20180221145739 76 83 8.0 16.0 0.00 0.00 0.00 89 1024.0
20180221144241 75 120 4.0 13.0 0.00 0.00 0.00 92 1023.7
20180221142734 75 100 5.0 14.0 0.00 0.00 0.00 93 1023.6
20180221141232 74 116 3.0 9.0 0.00 0.00 0.00 94 1023.5
20180221135725 73 110 5.0 10.0 0.00 0.00 0.00 95 1023.4
20180221134228 73 92 3.0 9.0 0.00 0.00 0.00 96 1023.5
20180221132725 72 103 4.0 8.0 0.00 0.00 0.00 96 1023.4
20180221131225 72 106 2.0 6.0 0.00 0.00 0.00 97 1023.4
20180221125726 72 116 1.0 6.0 0.00 0.00 0.00 96 1023.3
20180221124220 72 129 2.0 6.0 0.00 0.00 0.00 96 1023.2
20180221122719 73 107 2.0 6.0 0.00 0.00 0.00 96 1023.2
20180221121217 73 143 3.0 8.0 0.00 0.00 0.00 96 1023.1
20180221115713 73 132 4.0 8.0 0.00 0.00 0.00 96 1022.7
20180221114214 73 148 3.0 10.0 0.00 0.00 0.00 96 1022.5
20180221112713 73 128 3.0 8.0 0.00 0.00 0.00 96 1022.4
20180221111214 73 105 3.0 10.0 0.00 0.00 0.00 96 1022.4
20180221105710 73 102 4.0 6.0 0.00 0.00 0.00 96 1022.2
20180221104210 73 131 3.0 6.0 0.00 0.00 0.00 96 1022.2
20180221102710 72 96 2.0 6.0 0.00 0.00 0.00 96 1022.2
20180221101207 72 110 2.0 7.0 0.00 0.00 0.00 96 1022.0
20180221095708 72 126 0.0 5.0 0.00 0.00 0.00 96 1022.0
20180221094208 72 116 2.0 5.0 0.00 0.00 0.00 97 1022.0
20180221092705 72 183 1.0 6.0 0.00 0.00 0.00 97 1022.1
20180221091204 72 123 1.0 4.0 0.00 0.00 0.00 97 1022.4
20180221085704 72 204 0.0 4.0 0.00 0.00 0.00 97 1022.4
20180221084205 72 190 0.0 3.0 0.00 0.00 0.00 97 1022.5
20180221082702 72 202 0.0 2.0 0.00 0.00 0.00 96 1022.5
20180221081204 72 183 0.0 3.0 0.00 0.00 0.00 96 1022.4
20180221075700 72 201 0.0 4.0 0.00 0.00 0.00 96 1022.2
20180221074158 72 203 1.0 4.0 0.00 0.00 0.00 96 1022.2
20180221072655 72 186 0.0 3.0 0.00 0.00 0.00 95 1022.1
20180221071153 72 107 0.0 3.0 0.00 0.00 0.00 95 1022.2
20180221065653 72 140 1.0 3.0 0.00 0.00 0.00 95 1022.2
20180221064153 72 134 2.0 4.0 0.00 0.00 0.00 95 1022.3
20180221062647 73 105 1.0 5.0 0.00 0.00 0.00 95 1022.3
20180221061144 73 144 1.0 6.0 0.00 0.00 0.00 95 1022.3
20180221055645 73 152 2.0 5.0 0.00 0.00 0.00 95 1022.2
20180221054146 73 127 2.0 4.0 0.00 0.00 0.00 95 1022.2
20180221052645 73 103 2.0 6.0 0.00 0.00 0.00 94 1022.2
20180221051145 73 106 2.0 5.0 0.00 0.00 0.00 94 1022.3
20180221045644 73 192 1.0 2.0 0.00 0.00 0.00 94 1022.4
20180221044143 73 119 2.0 4.0 0.00 0.00 0.00 93 1022.4
20180221042647 74 204 0.0 3.0 0.00 0.00 0.00 93 1022.5
20180221041141 74 177 1.0 4.0 0.00 0.00 0.00 93 1022.4
20180221035641 74 125 1.0 3.0 0.00 0.00 0.00 93 1022.4
20180221034143 74 129 1.0 4.0 0.00 0.00 0.00 93 1022.2
20180221032640 74 146 1.0 4.0 0.00 0.00 0.00 92 1022.1
20180221031140 74 128 2.0 6.0 0.00 0.00 0.00 91 1022.0
20180221025638 74 119 2.0 4.0 0.00 0.00 0.00 91 1021.8
20180221024142 74 160 2.0 4.0 0.00 0.00 0.00 90 1021.8
20180221022740 74 168 1.0 5.0 0.00 0.00 0.00 89 1021.7
20180221021140 75 102 1.0 7.0 0.00 0.00 0.00 89 1021.5
20180221015636 75 105 4.0 7.0 0.00 0.00 0.00 88 1021.4
20180221014135 75 114 2.0 7.0 0.00 0.00 0.00 87 1021.2
20180221012638 75 164 2.0 8.0 0.00 0.00 0.00 87 1021.0
20180221011133 75 102 3.0 6.0 0.00 0.00 0.00 86 1021.1
20180221005634 76 187 3.0 6.0 0.00 0.00 0.00 85 1021.1
20180221004135 76 143 4.0 8.0 0.00 0.00 0.00 84 1021.0
20180221002631 76 148 3.0 7.0 0.00 0.00 0.00 84 1020.9
20180221001132 76 207 0.0 5.0 0.00 0.00 0.00 83 1020.9
20180220235632 77 114 2.0 7.0 0.00 0.00 0.00 82 1020.9
20180220234128 77 155 4.0 12.0 0.00 0.00 0.00 80 1020.7
20180220232629 78 119 4.0 12.0 0.00 0.00 0.00 79 1020.6
20180220231127 79 162 5.0 11.0 0.00 0.00 0.00 76 1020.5
20180220225624 79 104 4.0 13.0 0.00 0.00 0.00 75 1020.3